This is the latest recevied weather packets stored in our database for station/object EA1IOK-1. If no packets are shown the sender has not sent any weather packets the latest 10 day(s).
| Time | Temp. | Humidity | Pressure | Rain* | Wind** | Luminosity | Snow |
|---|---|---|---|---|---|---|---|
| 1778064144 | 14.44° C | 100% | 1014 hPa | - | - | - | - |
| 1778063252 | 14.44° C | 100% | 1014.2 hPa | - | - | - | - |
| 1778062344 | 13.89° C | 100% | 1014.1 hPa | - | - | - | - |
| 1778061439 | 13.89° C | 100% | 1014.3 hPa | - | - | - | - |
| 1778060541 | 15.56° C | 100% | 1014.2 hPa | - | - | - | - |
| 1778059643 | 17.22° C | 100% | 1014.2 hPa | - | - | - | - |
| 1778058742 | 17.22° C | 100% | 1014.2 hPa | - | - | - | - |
| 1778057841 | 15.56° C | 100% | 1014.2 hPa | - | - | - | - |
| 1778056938 | 16.67° C | 100% | 1014.2 hPa | - | - | - | - |
| 1778055140 | 12.78° C | 100% | 1014.2 hPa | - | - | - | - |
| 1778054235 | 12.78° C | 100% | 1014.3 hPa | - | - | - | - |
| 1778053333 | 11.11° C | 100% | 1014.4 hPa | - | - | - | - |
| 1778052433 | 15° C | 100% | 1014.5 hPa | - | - | - | - |
| 1778050631 | 9.44° C | 100% | 1014.4 hPa | - | - | - | - |
| 1778049735 | 9.44° C | 100% | 1014.4 hPa | - | - | - | - |
| 1778048835 | 8.33° C | 100% | 1014.2 hPa | - | - | - | - |
| 1778047930 | 8.89° C | 100% | 1014.1 hPa | - | - | - | - |
| 1778047029 | 7.78° C | 100% | 1014 hPa | - | - | - | - |
| 1778046132 | 7.22° C | 100% | 1014.1 hPa | - | - | - | - |
| 1778045227 | 7.22° C | 100% | 1014 hPa | - | - | - | - |
| 1778044330 | 7.22° C | 100% | 1014 hPa | - | - | - | - |
| 1778043426 | 7.22° C | 100% | 1014 hPa | - | - | - | - |
| 1778042529 | 7.22° C | 100% | 1014 hPa | - | - | - | - |
| 1778041658 | 7.22° C | 100% | 1014.1 hPa | - | - | - | - |
| 1778041624 | 7.22° C | 100% | 1014.1 hPa | - | - | - | - |
* Rain since midnight (hover to see other rain measurements)
** Current wind speed in m/s (hover to see current wind gust speed)